This is the latest recevied weather packets stored in our database for station/object KK7MLS-13. If no packets are shown the sender has not sent any weather packets the latest 1 day(s).
| Time | Temp. | Humidity | Pressure | Rain* | Wind** | Luminosity | Snow |
|---|---|---|---|---|---|---|---|
| 1778016363 | 17.22° C | 69% | 1016.6 hPa | 0 mm | 0 m/s | 110 W/m² | - |
| 1778016066 | 16.67° C | 70% | 1016.6 hPa | 0 mm | 0 m/s | 117 W/m² | - |
| 1778015758 | 16.67° C | 69% | 1016.7 hPa | 0 mm | 0 m/s | 123 W/m² | - |
| 1778015455 | 17.22° C | 69% | 1016.7 hPa | 0 mm | 0 m/s | 115 W/m² | - |
| 1778015152 | 16.67° C | 70% | 1017 hPa | 0 mm | 0 m/s | 122 W/m² | - |
| 1778014849 | 16.67° C | 70% | 1016.8 hPa | 0 mm | 0 m/s | 126 W/m² | - |
| 1778014546 | 17.22° C | 69% | 1016.7 hPa | 0 mm | 0 m/s | 127 W/m² | - |
| 1778014244 | 17.22° C | 70% | 1016.8 hPa | 0 mm | 0 m/s | 121 W/m² | - |
| 1778013941 | 16.67° C | 72% | 1016.8 hPa | 0 mm | 0 m/s | 122 W/m² | - |
| 1778013638 | 16.67° C | 71% | 1016.8 hPa | 0 mm | 0 m/s | 115 W/m² | - |
| 1778013335 | 16.67° C | 69% | 1016.9 hPa | 0 mm | 0 m/s | 110 W/m² | - |
| 1778013032 | 17.22° C | 68% | 1016.9 hPa | 0 mm | 0 m/s | 121 W/m² | - |
| 1778012728 | 16.67° C | 69% | 1016.8 hPa | 0 mm | 0 m/s | 130 W/m² | - |
| 1778012424 | 16.67° C | 69% | 1017 hPa | 0 mm | 0 m/s | 156 W/m² | - |
| 1778012121 | 16.67° C | 70% | 1017 hPa | 0 mm | 0 m/s | 144 W/m² | - |
| 1778011819 | 16.67° C | 71% | 1017 hPa | 0 mm | 0 m/s | 122 W/m² | - |
| 1778011517 | 16.67° C | 71% | 1017 hPa | 0 mm | 0 m/s | 104 W/m² | - |
| 1778011213 | 16.11° C | 71% | 1017.1 hPa | 0 mm | 0 m/s | 97 W/m² | - |
| 1778010909 | 16.11° C | 72% | 1017 hPa | 0 mm | 0 m/s | 109 W/m² | - |
| 1778010607 | 16.11° C | 72% | 1016.9 hPa | 0 mm | 0 m/s | 113 W/m² | - |
| 1778010304 | 16.67° C | 70% | 1017 hPa | 0 mm | 0 m/s | 97 W/m² | - |
| 1778010004 | 16.67° C | 69% | 1016.9 hPa | 0 mm | 0 m/s | 93 W/m² | - |
| 1778009702 | 16.67° C | 69% | 1016.9 hPa | 0 mm | 0 m/s | 102 W/m² | - |
| 1778009399 | 16.67° C | 71% | 1017 hPa | 0 mm | 0 m/s | 118 W/m² | - |
| 1778009097 | 16.67° C | 71% | 1016.9 hPa | 0 mm | 0 m/s | 146 W/m² | - |
* Rain latest hour (hover to see other rain measurements)
** Current wind speed in m/s (hover to see current wind gust speed)